Regional Weather Roundup
Issued by NWS

Home | Current Version | Previous Version | Text Only | Print | Product List | Glossary On
Versions: 1 2 3 4 5 6 7 8 9 10 11 12 13 14 15 16 17 18 19 20 21 22 23 24 25 26 27 28 29 30 31 32 33 34 35 36 37 38 39 40 41 42 43 44 45 46 47 48 49 50
000
ASUS43 KMKX 221600
RWRWI

WISCONSIN REGIONAL WEATHER ROUNDUP
NATIONAL WEATHER SERVICE MILWAUKEE/SULLIVAN WI
1000 AM CST THU FEB 22 2018

NOTE: "FAIR" INDICATES FEW OR NO CLOUDS BELOW 12,000 FEET WITH NO
SIGNIFICANT WEATHER AND/OR OBSTRUCTIONS TO VISIBILITY.

WIZ001-002-006>008-014>016-023>028-221700-
NORTHWEST WISCONSIN

CITY           SKY/WX    TMP DP  RH WIND       PRES   REMARKS
SUPERIOR ARPT  FAIR       7   2  78 CALM      30.64S
ASHLAND        FAIR       7   3  84 CALM      30.64S
HAYWARD        FAIR      14   4  64 CALM      30.59S
SIREN          FAIR       8   2  75 CALM      30.60S
CUMBERLAND     CLOUDY    10   3  72 SE7       30.57S WCI   0
RICE LAKE      FAIR      13   6  74 SE5       30.61S WCI   5
CHETEK         FAIR      14   4  65 CALM      30.60F
LADYSMITH      FAIR      17   7  63 E3        30.61S
EAU CLAIRE     PTSUNNY   18   7  62 E6        30.59F WCI  10
MENOMONIE      FAIR      17   7  65 E5        30.60F WCI  10
NEW RICHMOND   FAIR      16   5  60 SE8       30.58F WCI   6
OSCEOLA        CLOUDY    15   6  67 SE6       30.62F WCI   6
$$

WIZ003>005-009-010-017-018-221700-
NORTH CENTRAL WISCONSIN

CITY           SKY/WX    TMP DP  RH WIND       PRES   REMARKS
MANITOWISH WTR FAIR      11   8  89 CALM      30.58F
ARBOR VITAE    FAIR      17   9  71 CALM      30.58S
WOODRUFF       FAIR      17   9  71 CALM      30.58S
RHINELANDER    FAIR      17   7  64 E6        30.58F WCI   9
EAGLE RIVER    FAIR      16   6  64 CALM      30.59R
LAND O LAKES   FAIR      17   8  67 SE3       30.60S
PHILLIPS       FAIR      16   6  65 CALM      30.58R
TOMAHAWK       FAIR      15   6  69 CALM      30.60S
MEDFORD        FAIR      15   7  69 E5        30.57F WCI   8
MERRILL        PTSUNNY   19   9  67 CALM      30.61S
$$

WIZ029-030-035-036-043>047-221700-
CENTRAL WISCONSIN

CITY           SKY/WX    TMP DP  RH WIND       PRES   REMARKS
WAUSAU         CLOUDY    19  10  68 E6        30.59F WCI  11
MOSINEE        NOT AVBL
MARSHFIELD     PTSUNNY   18  11  74 E8        30.57F WCI   8
STEVENS POINT  CLOUDY    19  10  68 E8        30.62S WCI   8
WAUPACA        CLOUDY    25  13  61 CALM      30.64S
WAUTOMA        CLOUDY    23  15  71 NE7       30.63F WCI  15
WISC RAPIDS    CLOUDY    23  12  62 E8        30.61F WCI  14
CAMP DOUGLAS   NOT AVBL
$$

WIZ011>013-019>022-031-037>040-048>050-221700-
NORTHEAST WISCONSIN

CITY           SKY/WX    TMP DP  RH WIND       PRES   REMARKS
ANTIGO         CLOUDY    19  10  67 SE8       30.59F WCI   9
SHAWANO        FAIR      24  13  63 E7        30.64F WCI  16
OCONTO         FAIR      24  12  60 E5        30.67F WCI  18
STURGEON BAY   FAIR      28  20  71 NE6       30.66F WCI  22
GREEN BAY      CLOUDY    23  14  68 NE9       30.66S WCI  13
MANITOWOC      CLOUDY    28  22  78 N5        30.65R WCI  23
APPLETON       PTSUNNY   23  12  63 NE6       30.62S WCI  16
CLINTONVILLE   CLOUDY    23  12  62 E3        30.65S
OSHKOSH        CLOUDY    24  17  74 NE7       30.64R WCI  16
$$

WIZ032>034-041-042-053>061-221700-
SOUTHWEST WISCONSIN

CITY           SKY/WX    TMP DP  RH WIND       PRES   REMARKS
LA CROSSE      CLOUDY    25  16  68 E7        30.59F WCI  17
SPARTA         CLOUDY    22  16  76 E10       30.60F WCI  11
VIROQUA        CLOUDY    24  19  83 E8        30.54F WCI  14
BOSCOBEL       CLOUDY    29  16  58 NE9       30.57F WCI  20
PRAIRIE DU CHI CLOUDY    28  14  57 E7        30.57S WCI  20
PLATTEVILLE    FAIR      28  21  75 E12       30.55F WCI  17
$$

WIZ056-057-062-063-064-067-068-221700-
SOUTH CENTRAL WISCONSIN

CITY           SKY/WX    TMP DP  RH WIND       PRES   REMARKS
REEDSBURG      FAIR      24  15  68 NE7       30.59F WCI  16
BARABOO/DELLS  CLOUDY    24  15  69 E9        30.59F WCI  14
LONE ROCK      NOT AVBL
MINERAL POINT  FAIR      30  23  74 E9        30.55S WCI  22
MADISON        CLOUDY    27  20  75 E10       30.59S WCI  17
MIDDLETON      CLOUDY    28  21  74 E8        30.59F WCI  20
WATERTOWN      CLOUDY    28  23  80 NE8       30.59R WCI  20
MONROE         PTSUNNY   28  21  74 NE16      30.54F WCI  17
JANESVILLE     CLOUDY    30  25  80 NE9       30.58R WCI  22
$$

WIZ051-052-058>065-066-070>072-221700-
SOUTHEAST WISCONSIN

CITY           SKY/WX    TMP DP  RH WIND       PRES   REMARKS
MILWAUKEE      PTSUNNY   33  27  78 NE13      30.60F WCI  24
WAUKESHA       CLOUDY    28  21  74 NE8       30.59F WCI  20
MILWAUKEE/TIMM CLOUDY    32  19  59 NE8       30.60F WCI  25
RACINE         PTSUNNY   34  28  79 NE13      30.60S WCI  25
BURLINGTON     FAIR      33  24  70 E12       30.58S WCI  24
KENOSHA        PTSUNNY   35  27  72 E17       30.57F WCI  25
FOND DU LAC    PTSUNNY   27  18  69 NE8       30.63R WCI  19
SHEBOYGAN      CLOUDY    31  23  72 NE12      30.64R WCI  22
WEST BEND      CLOUDY    30  25  80 NE9       30.60F WCI  22
JUNEAU         CLOUDY    27  21  77 NE7       30.61R WCI  19
$$

LSZ147-162-221700-
LAKE SUPERIOR

STATION/POSITION TIME  TEMP    WIND        PRES    WAVE
                       AIR SEA DIR/SP/G            HT/PER
                 (UTC) (F)     (DEG/KT/KT) (MB)    (FT/S)
DEVILS ISLAND    1500   14     210/  6/  7 1039.2F
SAXON HARBOR     1530   12      60/  2/  2 1036.9F
$$

LMZ867-665-643>646-221700-
LAKE MICHIGAN

STATION/POSITION TIME  TEMP    WIND        PRES    WAVE
                       AIR SEA DIR/SP/G            HT/PER
                 (UTC) (F)     (DEG/KT/KT) (MB)    (FT/S)
NORTHPORT PIER   1540   25                 1038.6F
KEWAUNEE LAKESHO 1530   27      20/  6/ 10 1036.6F
SHEBOYGAN LAKESH 1500   30      40/ 13/ 14 1038.3F
PORT WASHINGTON  1530   32      60/ 12/ 15 1037.3F
MILWAUKEE LAKESH 1530   31      60/ 14/ 16   N/A
KENOSHA   LAKESH 1500   32      40/ 10/ 13 1035.9
$$

TC  - TEMPERATURE IN CELSIUS
VSB - VISIBILITY IN STATUTE MILES
WCI - WIND CHILL INDEX
HX  - HEAT INDEX





USA.gov is the U.S. government's official web portal to all federal, state and local government web resources and services.